Overview Statistics Trail Chart Weather Telemetry Raw packets
 

This is the latest recevied weather packets stored in our database for station/object KM5VY. If no packets are shown the sender has not sent any weather packets the latest 10 day(s).

<< 43 44 45 46 47 48 49 >>
Time Temp. Humidity Pressure Rain* Wind** Luminosity Snow
1788035623 35° C 24% 1024.7 hPa 0 mm - - -
1788035022 35° C 24% 1025.1 hPa 0 mm - - -
1788034421 35° C 24% 1025.4 hPa 0 mm - - -
1788033820 35° C 25% 1025.4 hPa 0 mm - - -
1788033219 35° C 24% 1025.4 hPa 0 mm - - -
1788032618 35° C 25% 1026.1 hPa 0 mm - - -
1788032017 35° C 25% 1025.7 hPa 0 mm - - -
1788031416 35° C 25% 1026.1 hPa 0 mm - - -
1788030815 35° C 25% 1026.1 hPa 0 mm - - -
1788030214 35° C 25% 1026.4 hPa 0 mm - - -
1788029613 35° C 25% 1026.4 hPa 0 mm - - -
1788029012 35° C 25% 1026.8 hPa 0 mm - - -
1788028411 35° C 25% 1026.8 hPa 0 mm - - -
1788027810 35° C 25% 1027.1 hPa 0 mm - - -
1788027209 34.44° C 26% 1027.4 hPa 0 mm - - -
1788026608 34.44° C 26% 1027.4 hPa 0 mm - - -
1788026007 33.89° C 27% 1027.8 hPa 0 mm - - -
1788025406 32.78° C 27% 1027.8 hPa 0 mm - - -
1788024805 32.78° C 28% 1028.1 hPa 0 mm - - -
1788024207 32.22° C 29% 1028.1 hPa 0 mm - - -
1788023603 31.67° C 29% 1028.1 hPa 0 mm - - -
1788023002 31.11° C 31% 1028.1 hPa 0 mm - - -
1788022401 30.56° C 31% 1028.1 hPa 0 mm - - -
1788021800 29.44° C 33% 1028.1 hPa 0 mm - - -
1788021199 28.89° C 34% 1028.1 hPa 0 mm - - -

* Rain latest hour (hover to see other rain measurements)
** Current wind speed in m/s (hover to see current wind gust speed)